Left ArrowRight Arrow

31.31129, -92.44514

Hourly Observations for March 27, 2016

Temp ( °F °C ) Dew Point ( °F °C ) Humidity (%) Winds ( mph kmh ) Pressure ( in mb ) Visibility ( mi km ) Precip ( " mm )
12:53 am 00:53 Clear 61 16.1 54 12.2 78 78 Calm 29.96 1014 10 16 0.00 0.00
1:53 am 01:53 Clear 60 15.6 56 13.3 86 86 SSE 6 9 29.94 1014 10 16 0.00 0.00
2:53 am 02:53 Clear 62 16.7 57 13.9 84 84 Calm 29.93 1014 10 16 0.00 0.00
3:53 am 03:53 Clear 62 16.7 57 13.9 84 84 Calm 29.92 1013 10 16 0.00 0.00
4:53 am 04:53 Clear 62 16.7 58 14.4 86 86 ESE 3 6 29.90 1013 10 16 0.00 0.00
5:53 am 05:53 Mostly Cloudy 63 17.2 61 16.1 93 93 SE 7 11 29.92 1013 9 14 0.00 0.00
6:08 am 06:08 Mostly Cloudy 63 17.2 61 16.1 93 93 S 5 7 29.91 1013 9 14 0.00 0.00
6:42 am 06:42 Cloudy 64 17.8 62 16.7 93 93 SE 5 7 29.91 1013 8 13 0.00 0.00
6:53 am 06:53 Cloudy with Light Rain 65 18.3 64 17.8 97 97 SE 3 6 29.93 1013 7 11 0.00 0.03
7:10 am 07:10 Cloudy 65 18.3 64 17.8 97 97 SSE 3 6 29.91 1013 7 11 0.00 0.03
7:20 am 07:20 Cloudy with Mist and Fog 65 18.3 64 17.8 97 97 SSE 5 7 29.91 1013 6 10 0.00 0.03
7:53 am 07:53 Cloudy with Mist and Fog 66 18.9 65 18.3 96 96 SE 5 7 29.94 1014 4 6 0.00 0.03
8:06 am 08:06 Cloudy with Mist and Fog 66 18.9 65 18.3 96 96 SSE 3 6 29.94 1014 5 8 0.00 0.00
8:53 am 08:53 Cloudy with Mist and Fog 66 18.9 65 18.3 96 96 Calm 29.96 1015 4 6 0.00 0.00
9:53 am 09:53 Cloudy with Mist and Fog 66 18.9 65 18.3 96 96 NW 5 7 29.97 1015 5 8 0.02 0.51
10:44 am 10:44 Cloudy with Rain 64 17.8 63 17.2 96 96 N 14 22 30.00 1016 2 3 0.00 0.03
10:53 am 10:53 Cloudy with Rain 64 17.8 63 17.2 96 96 NNW 10 17 30.00 1016 1 2 0.01 0.25
11:21 am 11:21 Cloudy with Light Rain 63 17.2 63 17.2 100 100 NW 9 15 30.00 1016 3 4 0.01 0.25
11:25 am 11:25 Cloudy with Light Rain 64 17.8 63 17.2 96 96 NNW 9 15 30.00 1016 2 3 0.01 0.25
11:32 am 11:32 Cloudy with Light Rain 64 17.8 63 17.2 96 96 NW 8 13 30.00 1016 3 5 0.01 0.25
11:53 am 11:53 Cloudy with Mist and Fog 65 18.3 63 17.2 93 93 NNW 3 6 30.00 1016 5 8 0.01 0.25
12:53 pm 12:53 Cloudy with Mist and Fog 67 19.4 64 17.8 91 91 Calm 30.00 1016 5 8 0.00 0.03
1:53 pm 13:53 Mostly Cloudy 71 21.7 65 18.3 81 81 NW 5 7 29.99 1016 8 13 0.00 0.00
2:00 pm 14:00 Mostly Cloudy 71 21.7 65 18.3 81 81 VRB 3 6 29.97 1015 8 13 0.00 0.00
2:17 pm 14:17 Partly Cloudy 73 22.8 65 18.3 76 76 WNW 5 7 29.97 1015 8 13 0.00 0.00
2:53 pm 14:53 Mostly Sunny 75 23.9 64 17.8 69 69 NNW 5 7 29.97 1015 9 14 0.00 0.00
3:53 pm 15:53 Mostly Cloudy 77 25 64 17.8 64 64 NW 5 7 29.96 1015 9 14 0.00 0.00
4:53 pm 16:53 Cloudy 76 24.4 63 17.2 64 64 NW 10 17 29.95 1014 10 16 0.00 0.00
5:53 pm 17:53 Mostly Cloudy 78 25.6 62 16.7 58 58 NW 12 19 29.96 1015 10 16 0.00 0.00
6:53 pm 18:53 Mostly Sunny 74 23.3 60 15.6 62 62 NW 9 15 29.98 1015 9 14 0.00 0.00
7:53 pm 19:53 Clear 70 21.1 60 15.6 71 71 NNW 6 9 29.99 1016 10 16 0.00 0.00
8:53 pm 20:53 Mostly Cloudy 69 20.6 61 16.1 76 76 NNW 8 13 30.01 1016 10 16 0.00 0.03
9:53 pm 21:53 Mostly Cloudy 68 20 56 13.3 65 65 NW 10 17 30.04 1017 10 16 0.00 0.00
10:53 pm 22:53 Mostly Clear 66 18.9 54 12.2 65 65 NNW 9 15 30.06 1018 10 16 0.00 0.00
11:53 pm 23:53 Cloudy 65 18.3 50 10 59 59 NNW 12 19 30.07 1018 10 16 0.00 0.00

Powered by Vaisala Xweather